Salt Lake City, UT

1:16 PM MDT on August 25, 2016 (GMT -0600)
Salt Lake City International

Weather History for KSLC - October, 2010

Change the Weather History Date:

Sunday, October 3, 2010

  Actual Average Record
Temperature  
Mean Temperature 73 °F 58 °F  
Max Temperature 86 °F 71 °F 89 °F (1963)
Min Temperature 59 °F 46 °F 30 °F (1891)
Degree Days  
Heating Degree Days 0 7  
Month to date heating degree days 0 21  
Since 1 July heating degree days 34 110  
Cooling Degree Days 8 1  
Month to date cooling degree days 21 3  
Year to date cooling degree days 1142 1156  
Growing Degree Days 22 (Base 50)    
Moisture  
Dew Point 42 °F    
Average Humidity 35    
Maximum Humidity 51    
Minimum Humidity 19    
Precipitation  
Precipitation T in 0.05 in 1.34 in (1951)
Month to date precipitation T 0.14  
Year to date precipitation 10.95 11.86  
Snow  
Snow 0.00 in 0.00 in T in (2013)
Month to date snowfall 0.0 0.0  
Since 1 July snowfall 0.0 0.0  
Snow Depth 0.00 in    
Sea Level Pressure  
Sea Level Pressure 29.91 in    
Wind  
Wind Speed 10 mph (SSE)    
Max Wind Speed 25 mph    
Max Gust Speed 32 mph    
Visibility 10 miles    
Events Rain    
T = Trace of Precipitation, MM = Missing Value Source: NWS Daily Summary

Daily Weather History Graph

Daily Weather History Graph

Search for Another Location

Airport or City:

Trip Planner

Search our weather history database for the weather conditions in past years. The results will help you decide how hot, cold, wet, or windy it might be!

Date:

Astronomy

Oct. 03, 2010 Rise Set
Actual Time 7:26 AM MDT 7:06 PM MDT
Civil Twilight 6:59 AM MDT 7:33 PM MDT
Nautical Twilight 6:27 AM MDT 8:05 PM MDT
Astronomical Twilight 5:55 AM MDT 8:37 PM MDT
Moon 2:24 AM MDT (10/3) 4:34 PM MDT (10/3)
Length of Visible Light 12h 34m
Length of Day
11h 40m
Waning Crescent, 22% of the Moon is Illuminated
Oct 3
Waning Crescent
Oct 7
New
Oct 14
First Quarter
Oct 22
Full
Oct 30
Last Quarter

Hourly Weather History & Observations

Time (MDT) Temp. Dew Point Humidity Pressure Visibility Wind Dir Wind Speed Gust Speed Precip Events Conditions
12:53 AM 66.0 °F 37.0 °F 34% 29.92 in 10.0 mi SSE 9.2 mph - N/A   Partly Cloudy
1:53 AM 66.9 °F 37.0 °F 33% 29.92 in 10.0 mi SE 8.1 mph - N/A   Clear
2:53 AM 68.0 °F 42.1 °F 39% 29.92 in 10.0 mi SSE 9.2 mph - N/A   Clear
3:53 AM 64.0 °F 41.0 °F 43% 29.92 in 10.0 mi SE 6.9 mph - N/A   Partly Cloudy
4:53 AM 64.0 °F 43.0 °F 46% 29.92 in 10.0 mi SSE 6.9 mph - N/A   Partly Cloudy
5:53 AM 63.0 °F 43.0 °F 48% 29.94 in 10.0 mi SSE 8.1 mph - N/A   Partly Cloudy
6:53 AM 60.1 °F 39.0 °F 46% 29.96 in 10.0 mi SE 9.2 mph - N/A   Scattered Clouds
7:53 AM 61.0 °F 39.9 °F 46% 29.99 in 10.0 mi ESE 9.2 mph - N/A   Scattered Clouds
8:53 AM 64.9 °F 42.1 °F 43% 29.98 in 10.0 mi SSE 5.8 mph - N/A   Scattered Clouds
9:53 AM 71.1 °F 42.1 °F 35% 29.97 in 10.0 mi South 11.5 mph - N/A   Scattered Clouds
10:53 AM 75.9 °F 42.1 °F 30% 29.97 in 10.0 mi SE 8.1 mph - N/A   Scattered Clouds
11:53 AM 81.0 °F 39.9 °F 23% 29.94 in 10.0 mi South 9.2 mph - N/A   Scattered Clouds
12:53 PM 84.0 °F 39.0 °F 20% 29.91 in 10.0 mi South 16.1 mph - N/A   Scattered Clouds
1:53 PM 84.0 °F 39.0 °F 20% 29.87 in 10.0 mi South 10.4 mph - N/A   Mostly Cloudy
2:53 PM 84.9 °F 39.0 °F 20% 29.84 in 10.0 mi South 8.1 mph - N/A   Mostly Cloudy
3:53 PM 84.0 °F 36.0 °F 18% 29.82 in 10.0 mi SSW 11.5 mph - N/A   Mostly Cloudy
4:53 PM 82.0 °F 41.0 °F 23% 29.82 in 10.0 mi WNW 10.4 mph - N/A   Mostly Cloudy
5:53 PM 75.9 °F 46.9 °F 36% 29.84 in 10.0 mi WNW 9.2 mph - 0.00 in Rain Light Rain
6:37 PM 75.2 °F 42.8 °F 31% 30.01 in 10.0 mi South 23.0 mph 32.2 mph 0.00 in   Mostly Cloudy
6:53 PM 73.0 °F 45.0 °F 37% 29.89 in 10.0 mi SSE 19.6 mph 27.6 mph 0.00 in   Mostly Cloudy
7:53 PM 71.1 °F 46.0 °F 41% 29.90 in 10.0 mi South 11.5 mph - N/A   Mostly Cloudy
8:53 PM 70.0 °F 46.9 °F 44% 29.89 in 10.0 mi South 10.4 mph - N/A   Mostly Cloudy
9:53 PM 68.0 °F 46.9 °F 47% 29.88 in 10.0 mi South 10.4 mph - N/A   Mostly Cloudy
10:53 PM 70.0 °F 45.0 °F 41% 29.88 in 10.0 mi SSE 16.1 mph 24.2 mph N/A   Mostly Cloudy
11:53 PM 68.0 °F 46.9 °F 47% 29.88 in 10.0 mi ESE 10.4 mph - N/A   Mostly Cloudy